Date,TemperatureHighF,TemperatureAvgF,TemperatureLowF,DewpointHighF,DewpointAvgF,DewpointLowF,HumidityHigh,HumidityAvg,HumidityLow,PressureMaxIn,PressureMinIn,WindSpeedMaxMPH,WindSpeedAvgMPH,GustSpeedMaxMPH,PrecipitationSumIn
2013-1-1,33,23,10,30,19,7,93,83,72,29.95,29.75,15,7,24,0.00
2013-1-2,25,19,12,21,15,7,93,83,72,30.15,29.91,14,6,23,0.00
2013-1-3,28,22,12,25,19,8,91,85,76,30.14,29.93,19,4,19,0.00
2013-1-4,34,31,28,26,23,20,89,74,61,29.93,29.81,22,11,27,0.01
2013-1-5,34,31,26,27,25,21,83,77,67,30.21,29.94,19,6,27,0.01
2013-1-6,38,34,30,33,29,24,94,81,72,30.03,29.82,14,4,21,0.02
2013-1-7,35,29,25,33,25,21,95,86,72,30.30,29.96,14,4,21,0.00
2013-1-8,41,32,27,27,24,22,82,71,58,30.25,30.14,9,1,12,0.00
2013-1-9,48,37,28,36,28,21,81,69,51,30.24,29.92,20,6,35,0.00
2013-1-10,39,35,31,30,28,27,84,77,67,30.48,30.23,14,6,24,0.00
2013-1-11,40,36,31,37,31,26,91,80,68,30.38,29.90,13,3,16,0.14
2013-1-12,53,45,39,48,43,37,97,93,84,29.98,29.93,6,1,13,0.00
2013-1-13,57,51,45,53,48,44,97,91,83,29.94,29.73,10,2,22,0.00
2013-1-14,54,39,29,51,33,23,93,81,67,30.27,29.68,21,7,30,0.01
2013-1-15,34,30,27,24,23,21,83,77,62,30.30,30.11,7,3,12,0.00
2013-1-16,34,31,28,30,27,23,94,87,73,30.10,29.71,11,2,18,0.04
2013-1-17,34,26,18,30,21,14,93,82,72,30.08,29.79,20,7,25,0.00
2013-1-18,29,20,14,16,12,6,91,73,52,30.34,30.04,19,6,24,0.00
2013-1-19,47,40,30,29,22,15,55,49,45,30.05,29.59,12,4,18,0.00
2013-1-20,45,32,21,34,20,11,87,63,50,29.96,29.40,29,14,39,0.01
2013-1-21,24,19,14,19,13,7,93,76,59,29.96,29.76,16,5,20,0.00
2013-1-22,15,10,7,9,0,-3,75,65,54,30.10,29.80,21,12,32,0.00
2013-1-23,14,7,4,6,1,-3,88,76,66,30.14,30.06,13,4,18,0.00
2013-1-24,13,9,2,8,4,-1,90,79,67,30.44,30.05,16,7,27,0.00
2013-1-25,18,13,9,12,9,6,90,84,70,30.40,30.00,11,3,20,0.00
2013-1-26,19,13,6,14,10,4,92,87,76,30.32,30.01,6,1,8,0.02
2013-1-27,29,20,13,18,15,11,93,83,64,30.48,30.32,7,2,10,0.02
2013-1-28,40,31,22,40,27,14,99,88,69,30.34,29.83,7,2,14,0.15
2013-1-29,50,42,35,49,41,35,100,97,94,29.98,29.76,12,2,18,0.27
2013-1-30,59,54,49,55,51,48,97,91,85,29.73,29.00,12,4,19,0.20
2013-1-31,53,33,20,52,27,16,98,78,61,29.61,28.91,28,15,42,0.25
2013-2-1,22,20,18,17,13,10,90,74,62,30.12,29.61,24,11,27,0.00
2013-2-2,20,18,14,16,11,7,87,76,64,30.12,29.91,13,4,21,0.00
2013-2-3,27,20,14,20,16,11,93,85,71,29.90,29.69,15,3,20,0.00
2013-2-4,21,19,18,16,13,9,89,75,64,29.87,29.76,22,9,29,0.00
2013-2-5,30,23,17,22,18,14,88,81,63,29.88,29.76,7,1,10,0.00
2013-2-6,27,24,14,25,17,8,93,78,62,30.30,29.80,24,7,27,0.00
2013-2-7,34,24,12,20,15,8,87,69,54,30.38,30.06,10,2,14,0.00
2013-2-8,35,31,22,31,27,18,97,86,64,30.06,29.68,18,4,22,0.00
2013-2-9,21,18,13,20,16,11,95,92,88,30.34,29.86,23,9,27,0.00
2013-2-10,39,23,9,21,14,7,93,71,44,30.36,29.99,12,2,15,0.16
2013-2-11,46,37,33,38,30,18,93,77,55,29.99,29.51,23,4,29,0.03
2013-2-12,36,33,31,29,26,24,80,75,69,29.88,29.64,22,11,30,0.00
2013-2-13,44,33,26,26,24,22,83,70,49,29.83,29.61,11,4,15,0.00
2013-2-14,45,34,24,33,27,21,92,78,50,29.85,29.69,8,2,14,0.00
2013-2-15,38,35,28,33,27,20,86,73,57,29.94,29.71,15,6,24,0.00
2013-2-16,30,24,20,23,17,12,84,74,61,29.94,29.81,12,5,16,0.00
2013-2-17,20,15,12,13,9,4,89,76,63,30.05,29.77,23,10,33,0.00
2013-2-18,35,22,12,16,12,8,84,67,42,30.21,29.93,20,6,25,0.00
2013-2-19,37,33,26,34,25,14,96,74,52,29.93,29.51,24,5,28,0.05
2013-2-20,26,22,19,18,15,12,92,75,67,29.96,29.68,21,14,33,0.00
2013-2-21,20,18,14,17,14,9,91,85,75,30.34,29.92,23,10,34,0.00
2013-2-22,36,28,16,26,22,14,93,79,64,30.32,29.99,14,2,14,0.00
2013-2-23,38,35,31,36,32,25,95,88,76,30.00,29.77,9,2,13,0.05
2013-2-24,31,30,29,29,26,24,94,84,77,29.95,29.75,18,6,20,0.00
2013-2-25,36,32,27,30,27,24,90,83,74,30.15,29.95,12,5,14,0.00
2013-2-26,44,34,26,32,28,23,95,79,57,30.15,29.77,14,3,19,0.07
2013-2-27,37,34,33,36,33,32,99,96,91,29.79,29.46,11,2,14,0.82
2013-2-28,43,34,32,37,33,31,99,94,75,29.59,29.46,11,3,12,0.44
2013-3-1,32,29,26,31,28,23,98,95,88,29.81,29.59,16,9,22,0.00
2013-3-2,26,24,22,25,22,21,96,93,87,29.82,29.75,15,8,19,0.00
2013-3-3,23,22,21,22,19,17,95,89,82,29.80,29.73,13,7,21,0.00
2013-3-4,28,25,22,23,20,17,89,83,75,29.93,29.79,18,11,25,0.00
2013-3-5,33,26,21,25,22,19,92,84,73,30.01,29.89,18,4,21,0.01
2013-3-6,41,34,21,32,28,20,96,77,64,30.02,29.86,8,3,15,0.00
2013-3-7,37,33,28,30,26,24,87,75,64,30.14,30.02,15,5,18,0.00
2013-3-8,35,31,27,29,26,22,96,82,68,30.29,30.12,21,10,27,0.00
2013-3-9,46,34,24,33,27,20,95,77,47,30.33,30.17,7,1,10,0.00
2013-3-10,58,47,35,31,27,24,69,47,34,30.18,29.97,10,2,14,0.00
2013-3-11,53,49,45,45,33,26,78,54,43,29.98,29.66,10,3,19,0.00
2013-3-12,52,42,35,48,39,31,97,89,79,29.81,29.62,13,5,18,0.27
2013-3-13,38,33,25,32,26,17,95,75,60,29.84,29.71,20,9,30,0.01
2013-3-14,31,25,19,20,14,9,86,64,41,29.95,29.82,31,15,35,0.00
2013-3-15,36,30,22,30,23,16,86,74,63,29.95,29.64,21,8,24,0.00
2013-3-16,30,26,19,24,19,15,85,76,69,29.88,29.72,14,5,21,0.00
2013-3-17,29,24,16,23,18,13,90,79,65,30.25,29.88,13,5,18,0.00
2013-3-18,34,25,18,27,18,10,96,75,43,30.27,29.74,21,3,21,0.00
2013-3-19,40,32,27,36,29,20,98,89,65,29.75,29.58,15,5,22,0.17
2013-3-20,32,27,23,24,20,14,93,75,59,29.75,29.71,18,8,24,0.00
2013-3-21,29,25,15,24,17,11,91,72,55,29.75,29.64,12,6,18,0.00
2013-3-22,31,28,25,26,24,21,93,84,78,29.82,29.64,19,10,24,0.00
2013-3-23,35,32,29,26,25,23,87,77,64,29.90,29.79,19,10,24,0.00
2013-3-24,38,32,26,28,25,23,92,76,58,29.89,29.64,9,4,13,0.00
2013-3-25,41,35,30,30,27,24,87,72,56,29.62,29.47,12,4,19,0.00
2013-3-26,43,36,31,33,29,25,92,79,56,29.83,29.59,13,5,20,0.00
2013-3-27,44,36,32,34,31,27,97,81,55,29.95,29.80,16,6,25,0.00
2013-3-28,42,36,32,36,33,31,97,87,70,30.10,29.93,11,6,18,0.04
2013-3-29,44,39,34,36,32,29,88,79,63,30.10,30.02,10,3,15,0.00
2013-3-30,50,40,30,32,28,24,87,65,37,30.11,29.98,11,3,13,0.00
2013-3-31,53,42,34,42,33,23,97,72,50,29.98,29.57,7,2,19,0.31
2013-4-1,45,36,26,41,31,20,96,82,53,29.85,29.48,26,8,29,0.03
2013-4-2,33,28,24,24,18,15,85,69,51,30.02,29.84,21,12,29,0.00
2013-4-3,34,30,26,22,18,14,80,64,45,30.28,30.00,20,12,31,0.00
2013-4-4,55,37,23,25,21,18,85,55,28,30.27,29.85,15,3,20,0.00
2013-4-5,44,38,30,30,23,16,72,56,40,30.02,29.79,19,6,25,0.00
2013-4-6,52,36,25,23,19,12,84,53,22,30.25,30.03,10,3,14,0.00
2013-4-7,69,53,42,46,33,18,75,47,35,30.03,29.68,12,5,30,0.00
2013-4-8,67,53,40,47,38,34,82,61,38,30.02,29.72,7,2,12,0.00
2013-4-9,66,54,46,50,45,41,94,72,46,29.99,29.71,21,6,33,0.36
2013-4-10,50,46,40,50,46,40,99,98,94,29.90,29.71,13,4,27,0.36
2013-4-11,40,37,34,40,35,30,100,92,78,30.02,29.84,9,4,14,0.02
2013-4-12,48,42,37,45,40,35,98,93,87,29.86,29.52,13,4,22,0.28
2013-4-13,46,41,38,38,36,33,94,81,65,29.85,29.70,14,4,22,0.02
2013-4-14,46,40,35,36,31,28,89,72,53,30.11,29.85,12,6,19,0.00
2013-4-15,68,53,35,49,40,29,79,63,48,30.11,30.00,10,3,21,0.00
2013-4-16,64,55,45,58,50,35,97,82,69,30.11,29.88,13,4,22,0.24
2013-4-17,55,46,38,41,36,33,84,69,48,30.23,30.10,13,4,20,0.00
2013-4-18,68,57,41,55,46,35,85,66,49,30.15,29.75,12,4,23,0.00
2013-4-19,73,59,42,61,53,38,94,81,65,29.75,29.32,12,5,26,0.36
2013-4-20,43,39,32,38,29,22,85,68,51,30.30,29.64,20,10,32,0.00
2013-4-21,47,36,28,28,25,20,87,66,43,30.57,30.30,14,4,18,0.00
2013-4-22,62,46,30,32,26,23,79,49,27,30.52,30.30,9,2,18,0.00
2013-4-23,63,49,36,40,32,24,73,55,34,30.30,29.93,11,2,16,0.00
2013-4-24,67,53,42,55,45,36,90,76,57,29.93,29.56,28,5,28,0.12
2013-4-25,63,46,36,37,32,27,82,61,30,30.21,29.89,18,6,27,0.00
2013-4-26,53,44,35,38,34,30,96,69,44,30.37,30.21,13,4,16,0.06
2013-4-27,67,52,36,40,34,29,85,54,28,30.35,30.15,9,2,10,0.00
2013-4-28,72,59,46,47,39,35,88,51,29,30.15,29.95,11,2,15,0.08
2013-4-29,59,54,50,52,47,40,90,78,66,30.01,29.93,8,2,16,0.03
2013-4-30,71,59,52,56,52,49,90,77,57,30.14,29.99,6,1,12,0.00
2013-5-1,80,64,52,49,38,29,77,43,21,30.28,30.14,6,1,12,0.00
2013-5-2,82,66,51,46,40,32,59,40,24,30.33,30.16,10,2,15,0.00
2013-5-3,80,65,54,47,43,32,68,46,29,30.23,30.11,7,1,13,0.00
2013-5-4,80,63,47,47,40,33,63,44,24,30.19,30.04,10,2,12,0.00
2013-5-5,82,65,53,48,40,26,69,43,18,30.11,29.96,6,1,14,0.00
2013-5-6,82,64,48,48,38,27,64,42,20,30.07,29.92,6,1,11,0.00
2013-5-7,82,67,55,53,50,43,83,57,27,30.02,29.89,7,1,12,0.00
2013-5-8,71,62,55,60,56,49,94,79,60,29.95,29.80,9,1,12,0.12
2013-5-9,70,59,51,57,53,50,96,82,60,29.85,29.77,10,1,13,0.00
2013-5-10,75,63,52,59,55,51,96,78,52,29.86,29.64,9,1,16,0.25
2013-5-11,61,58,51,59,54,47,97,86,73,29.65,29.57,13,4,16,0.12
2013-5-12,53,47,38,48,35,27,88,65,40,29.83,29.59,23,10,30,0.00
2013-5-13,47,42,36,32,30,28,75,64,51,30.03,29.83,16,8,25,0.00
2013-5-14,61,44,30,34,31,28,92,62,33,30.08,29.91,8,2,14,0.00
2013-5-15,80,58,43,59,43,30,83,59,42,29.91,29.45,16,4,25,0.02
2013-5-16,76,64,52,48,43,37,74,48,27,29.85,29.62,21,6,26,0.00
2013-5-17,64,53,40,44,40,36,93,63,37,30.12,29.86,11,3,18,0.00
2013-5-18,73,59,44,52,45,39,85,64,39,30.17,30.06,4,1,10,0.00
2013-5-19,70,62,56,60,56,51,87,80,69,30.08,29.96,7,2,14,0.00
2013-5-20,88,72,61,65,62,57,91,71,45,29.98,29.76,10,1,15,0.00
2013-5-21,88,74,64,71,66,61,97,76,48,29.80,29.61,8,2,21,0.70
2013-5-22,88,74,64,71,65,59,98,77,46,29.71,29.57,9,2,19,0.08
2013-5-23,76,67,50,66,61,49,97,82,65,29.67,29.59,12,2,15,0.00
2013-5-24,50,42,39,49,40,38,98,95,88,30.05,29.68,16,7,28,0.16
2013-5-25,55,46,40,42,39,36,91,77,53,30.06,30.01,19,6,23,0.00
2013-5-26,59,51,41,41,37,34,90,63,39,30.10,29.97,25,5,25,0.00
2013-5-27,71,56,40,42,38,35,86,55,33,30.17,30.04,10,2,13,0.00
2013-5-28,62,56,52,57,48,37,98,78,54,30.08,29.88,10,2,12,0.48
2013-5-29,81,70,57,70,65,57,98,85,63,29.92,29.82,13,3,19,0.12
2013-5-30,88,76,65,70,66,63,93,73,47,30.00,29.92,8,2,11,0.00
2013-5-31,89,79,67,70,65,60,84,64,37,29.98,29.81,9,2,15,0.00
2013-6-1,87,77,66,69,66,62,89,69,50,29.84,29.68,14,3,22,0.00
2013-6-2,81,73,66,67,63,56,85,73,50,29.72,29.59,19,4,24,0.02
2013-6-3,66,57,51,58,48,44,88,75,51,29.90,29.72,11,4,18,0.00
2013-6-4,65,56,47,47,41,28,89,61,26,30.06,29.90,13,5,20,0.00
2013-6-5,73,59,45,49,44,39,83,60,33,30.11,29.96,8,2,15,0.00
2013-6-6,60,57,54,57,52,45,97,86,66,29.97,29.76,8,2,16,1.04
2013-6-7,65,62,58,62,60,57,98,93,87,29.76,29.66,7,1,10,0.12
2013-6-8,64,59,56,60,57,56,100,93,80,29.98,29.65,9,4,12,0.01
2013-6-9,77,64,53,58,55,52,96,75,49,30.09,29.98,8,2,12,0.00
2013-6-10,68,64,61,64,59,54,96,84,73,30.03,29.63,9,2,15,0.17
2013-6-11,65,63,59,64,61,56,98,93,84,29.69,29.54,13,4,20,0.30
2013-6-12,73,62,54,58,56,53,98,81,56,29.82,29.69,12,4,13,0.00
2013-6-13,63,60,57,60,57,55,97,89,76,29.69,29.38,11,4,16,0.40
2013-6-14,70,61,53,60,57,53,100,87,66,29.84,29.62,13,5,20,0.00
2013-6-15,73,64,53,58,52,46,95,69,39,29.93,29.85,12,4,16,0.00
2013-6-16,73,66,59,66,58,52,86,77,66,29.86,29.60,12,3,23,0.00
2013-6-17,79,68,58,65,61,56,95,79,47,29.81,29.72,16,4,19,0.07
2013-6-18,67,62,56,60,56,49,99,83,54,29.89,29.77,12,4,16,0.00
2013-6-19,66,58,46,53,46,42,98,70,46,30.09,29.89,13,2,14,0.00
2013-6-20,78,63,48,57,50,43,83,63,42,30.14,30.08,8,2,13,0.00
2013-6-21,84,69,55,63,57,47,86,66,45,30.16,30.05,7,2,10,0.00
2013-6-22,85,76,67,68,64,61,82,68,51,30.07,29.91,10,2,14,0.00
2013-6-23,88,76,70,74,69,66,97,79,56,29.97,29.89,16,2,25,0.84
2013-6-24,88,78,70,73,69,64,92,76,57,29.93,29.83,7,2,11,0.00
2013-6-25,83,75,68,72,67,64,88,76,63,29.85,29.68,12,3,16,0.01
2013-6-26,83,74,69,70,67,64,87,80,61,29.72,29.66,11,4,14,0.00
2013-6-27,82,73,65,72,68,63,97,85,66,29.69,29.48,6,1,16,0.32
2013-6-28,70,66,62,67,65,62,100,97,89,29.47,29.36,8,3,10,0.57
2013-6-29,73,66,62,68,65,62,100,95,78,29.59,29.38,7,1,15,0.31
2013-6-30,79,69,61,70,65,61,100,88,66,29.79,29.58,7,2,12,0.01
2013-7-1,69,67,65,69,66,64,100,98,90,29.90,29.78,6,2,8,0.33
2013-7-2,80,71,62,75,69,62,100,93,75,29.99,29.89,7,2,12,0.16
2013-7-3,90,78,69,76,72,69,98,81,59,30.05,29.97,9,1,10,0.00
2013-7-4,83,77,73,77,72,70,95,84,70,30.05,29.98,7,2,10,0.06
2013-7-5,86,78,71,76,72,69,99,84,63,30.03,29.91,11,2,25,0.68
2013-7-6,85,75,70,74,70,65,99,84,58,30.03,29.91,8,2,11,0.00
2013-7-7,86,77,72,75,72,69,98,84,64,29.94,29.80,9,3,16,0.67
2013-7-8,82,74,69,72,69,65,94,84,67,29.94,29.85,7,4,10,0.01
2013-7-9,85,75,68,74,71,68,99,87,67,29.93,29.81,8,1,20,0.19
2013-7-10,84,75,67,75,71,63,97,89,70,29.82,29.59,9,2,36,0.24
2013-7-11,75,69,64,68,63,60,96,82,67,29.90,29.69,10,4,12,0.00
2013-7-12,77,68,60,65,62,59,99,83,55,30.05,29.90,8,2,11,0.00
2013-7-13,79,71,63,71,67,62,98,87,75,30.15,30.04,6,1,11,0.00
2013-7-14,95,79,69,77,72,68,97,80,53,30.21,30.11,7,1,8,0.00
2013-7-15,87,79,72,74,72,66,96,81,62,30.17,30.09,9,3,12,0.00
2013-7-16,89,78,68,72,69,65,94,74,52,30.16,30.08,10,2,14,0.00
2013-7-17,91,80,69,78,72,67,96,78,54,30.11,29.95,12,2,18,0.00
2013-7-18,89,79,73,77,74,71,96,83,66,29.97,29.84,16,2,16,0.00
2013-7-19,92,82,73,76,72,66,92,73,52,29.84,29.61,14,5,25,0.00
2013-7-20,76,71,65,70,67,63,98,87,72,29.77,29.60,14,3,19,0.18
2013-7-21,79,70,61,66,63,60,99,79,56,29.89,29.77,9,3,12,0.00
2013-7-22,82,71,62,73,66,61,99,87,70,29.89,29.67,7,1,12,0.36
2013-7-23,81,71,66,70,68,66,100,89,63,29.67,29.50,8,2,11,0.34
2013-7-24,71,62,52,67,55,49,90,80,68,29.92,29.54,14,6,18,0.01
2013-7-25,74,61,50,58,52,49,94,73,49,30.01,29.94,10,3,18,0.00
2013-7-26,81,65,52,61,56,51,99,76,45,30.00,29.91,7,1,10,0.00
2013-7-27,81,70,59,69,63,55,97,78,59,29.91,29.76,9,1,16,0.30
2013-7-28,82,68,59,68,65,58,98,89,55,29.87,29.73,8,1,12,0.22
2013-7-29,69,63,57,61,58,55,100,85,65,30.03,29.88,10,2,19,0.00
2013-7-30,74,65,56,62,59,54,97,82,61,30.10,30.03,10,3,12,0.00
2013-7-31,83,68,56,64,60,55,99,77,48,30.05,29.85,7,0,9,0.00
2013-8-1,76,67,61,68,63,60,96,87,73,29.85,29.66,9,1,13,0.06
2013-8-2,77,66,57,66,61,57,99,87,63,29.80,29.73,15,1,20,0.12
2013-8-3,74,68,60,62,58,54,96,73,50,29.81,29.71,12,4,18,0.00
2013-8-4,69,63,58,60,56,52,90,79,59,29.92,29.80,18,6,20,0.13
2013-8-5,72,61,50,59,53,50,99,77,52,30.01,29.92,10,2,12,0.00
2013-8-6,81,67,55,62,57,52,89,71,47,29.96,29.91,7,1,14,0.00
2013-8-7,73,68,62,67,64,59,93,86,80,29.94,29.82,8,2,12,0.00
2013-8-8,85,72,66,74,68,64,99,87,66,29.87,29.79,20,2,30,1.01
2013-8-9,74,70,66,72,69,62,100,96,87,29.82,29.72,9,2,14,0.26
2013-8-10,72,65,54,63,57,51,94,78,57,29.99,29.82,11,4,21,0.00
2013-8-11,73,63,54,60,56,50,93,77,56,30.02,29.94,7,2,9,0.00
2013-8-12,76,67,56,67,60,55,95,79,61,29.95,29.78,6,1,8,0.00
2013-8-13,74,66,58,67,62,51,99,87,68,29.77,29.61,16,3,20,0.59
2013-8-14,65,59,53,56,52,49,95,78,58,29.97,29.73,14,6,23,0.02
2013-8-15,72,61,49,57,53,48,97,77,55,30.05,29.97,9,2,12,0.00
2013-8-16,74,63,53,60,54,51,92,74,48,30.11,30.02,8,2,11,0.00
2013-8-17,78,66,54,64,57,51,91,74,51,30.20,30.11,7,1,9,0.00
2013-8-18,79,68,60,63,60,57,92,76,50,30.14,30.01,5,1,7,0.00
2013-8-19,79,68,60,64,61,58,95,78,52,30.01,29.91,7,1,10,0.00
2013-8-20,83,70,59,67,62,58,98,78,52,30.04,29.95,7,1,10,0.00
2013-8-21,88,73,61,69,63,59,93,73,48,30.07,29.91,6,1,9,0.00
2013-8-22,84,73,63,70,66,61,95,81,61,29.92,29.76,10,2,20,0.00
2013-8-23,72,65,57,67,58,54,98,80,59,30.09,29.85,10,3,14,0.01
2013-8-24,76,62,52,61,55,51,100,80,48,30.25,30.09,7,2,12,0.00
2013-8-25,80,68,55,62,58,53,93,72,49,30.26,30.05,13,2,18,0.00
2013-8-26,78,70,66,70,65,59,100,85,69,30.09,29.80,9,2,23,0.84
2013-8-27,83,73,68,73,70,67,100,90,70,29.83,29.75,7,2,10,0.05
2013-8-28,81,73,68,75,71,67,100,94,77,29.80,29.72,8,2,13,0.16
2013-8-29,81,71,63,74,68,62,100,93,71,29.93,29.80,7,2,13,0.00
2013-8-30,88,73,62,71,66,62,100,82,53,29.91,29.67,6,1,10,0.02
2013-8-31,82,75,68,74,70,67,96,85,67,29.73,29.62,11,2,13,0.00
2013-9-1,86,74,66,72,69,65,99,85,63,29.73,29.63,6,1,16,0.08
2013-9-2,85,72,65,75,69,62,100,90,68,29.67,29.53,9,2,16,0.89
2013-9-3,67,64,60,62,59,56,94,83,72,29.82,29.66,14,5,18,0.00
2013-9-4,76,66,53,61,58,52,97,75,52,29.89,29.82,11,5,15,0.00
2013-9-5,68,60,47,62,51,44,93,74,55,30.10,29.83,12,5,19,0.00
2013-9-6,72,55,43,52,46,42,96,75,40,30.19,30.02,6,1,10,0.00
2013-9-7,68,61,53,59,53,46,84,74,59,30.02,29.77,9,1,11,0.00
2013-9-8,64,60,48,63,52,44,99,77,53,30.01,29.73,18,4,23,0.09
2013-9-9,78,60,45,58,50,43,91,73,49,30.09,29.92,5,1,13,0.00
2013-9-10,91,76,64,77,69,58,96,79,64,29.93,29.85,9,2,13,0.17
2013-9-11,90,80,69,76,72,68,96,80,58,29.94,29.81,11,2,18,0.18
2013-9-12,75,69,63,71,66,61,99,92,82,29.80,29.61,9,2,13,0.34
2013-9-13,63,55,49,61,54,48,98,96,91,29.87,29.60,15,7,20,0.15
2013-9-14,58,50,45,49,46,44,97,87,65,30.04,29.86,10,4,14,0.00
2013-9-15,67,55,44,55,49,42,97,81,57,30.09,29.96,15,1,16,0.00
2013-9-16,57,51,42,54,49,40,99,92,79,30.26,29.97,13,3,19,0.04
2013-9-17,69,49,36,49,42,35,98,79,49,30.39,30.22,8,2,10,0.00
2013-9-18,78,59,46,54,47,42,92,67,39,30.23,30.03,5,1,12,0.00
2013-9-19,80,63,50,58,50,45,85,65,41,30.04,29.93,8,1,10,0.00
2013-9-20,83,67,57,64,59,51,93,75,51,29.93,29.74,11,1,13,0.00
2013-9-21,68,62,57,62,59,56,99,89,77,29.74,29.51,11,2,16,1.16
2013-9-22,56,52,49,55,47,42,96,84,71,29.90,29.60,13,6,19,0.02
2013-9-23,55,49,45,46,44,41,92,80,64,30.03,29.90,13,4,14,0.00
2013-9-24,62,50,40,49,44,39,99,83,56,30.03,29.91,11,3,14,0.00
2013-9-25,68,53,41,55,47,40,99,83,58,29.92,29.84,8,2,12,0.00
2013-9-26,68,54,44,55,50,43,100,85,62,30.03,29.90,9,2,14,0.01
2013-9-27,68,55,45,57,51,45,100,87,61,30.17,30.03,8,2,10,0.01
2013-9-28,75,59,48,58,52,46,96,78,50,30.22,30.10,9,1,10,0.00
2013-9-29,77,61,51,55,51,47,90,71,44,30.10,29.93,10,1,19,0.00
2013-9-30,81,63,53,59,53,49,87,72,44,29.94,29.84,5,1,7,0.00
2013-10-1,74,63,54,62,57,52,94,81,56,29.92,29.83,7,1,10,0.00
2013-10-2,75,64,55,64,58,53,94,81,58,29.96,29.83,9,3,14,0.00
2013-10-3,73,61,49,56,52,44,99,74,41,30.04,29.92,4,1,6,0.00
2013-10-4,78,67,63,69,64,56,100,91,74,29.94,29.87,5,1,8,0.12
2013-10-5,68,63,61,66,63,61,100,98,90,29.98,29.92,6,2,9,0.04
2013-10-6,84,69,61,73,66,61,100,89,62,29.92,29.71,7,1,15,0.10
2013-10-7,71,62,52,66,57,44,98,84,63,29.92,29.52,20,5,27,1.11
2013-10-8,62,53,46,50,46,43,97,79,52,30.26,29.92,8,3,12,0.00
2013-10-9,70,52,41,50,44,40,96,77,36,30.33,30.21,8,1,9,0.00
2013-10-10,65,53,44,52,46,40,95,78,57,30.21,30.06,6,1,11,0.00
2013-10-11,63,54,48,56,50,44,98,87,60,30.05,30.00,7,1,11,0.06
2013-10-12,81,59,43,52,45,41,94,66,28,30.14,30.02,5,0,11,0.00
2013-10-13,75,62,54,56,53,50,89,73,51,30.20,30.14,7,1,10,0.00
2013-10-14,62,55,53,55,53,51,99,93,68,30.22,30.17,6,0,7,0.38
2013-10-15,71,59,53,59,55,51,99,86,66,30.18,29.91,5,0,10,0.00
2013-10-16,60,58,56,57,51,45,93,77,65,29.92,29.71,8,1,13,0.05
2013-10-17,66,57,49,57,51,48,98,81,54,29.79,29.54,11,3,19,0.62
2013-10-18,56,52,46,52,45,41,98,78,60,29.83,29.60,18,6,27,0.02
2013-10-19,60,53,46,49,45,41,93,74,57,29.82,29.57,20,2,24,0.02
2013-10-20,51,47,42,43,41,38,92,80,69,29.91,29.67,11,5,15,0.00
2013-10-21,65,54,45,43,41,39,84,62,41,29.94,29.72,7,2,18,0.00
2013-10-22,54,48,42,48,39,32,91,71,52,29.75,29.64,15,5,22,0.01
2013-10-23,49,42,36,39,36,33,94,81,55,29.73,29.57,10,2,14,0.01
2013-10-24,47,40,35,37,33,30,91,77,53,29.90,29.69,21,9,28,0.00
2013-10-25,46,42,39,39,36,33,92,82,71,30.09,29.90,14,6,21,0.00
2013-10-26,46,42,39,36,32,29,83,66,52,30.06,29.74,16,5,22,0.00
2013-10-27,47,43,40,37,35,32,83,73,63,29.99,29.73,18,7,22,0.00
2013-10-28,49,42,34,41,34,27,82,73,61,30.28,29.97,15,5,21,0.00
2013-10-29,46,36,27,32,28,23,86,71,52,30.38,30.23,7,2,10,0.00
2013-10-30,62,46,38,42,38,32,91,75,46,30.22,30.03,6,0,7,0.02
2013-10-31,60,54,46,58,52,40,98,92,78,30.02,29.43,9,2,22,0.26
2013-11-1,64,59,52,59,50,41,96,74,47,29.57,29.17,30,8,35,0.20
2013-11-2,53,47,37,46,43,34,96,85,66,29.83,29.52,14,4,19,0.12
2013-11-3,37,33,25,34,27,20,89,78,64,30.44,29.83,13,6,20,0.01
2013-11-4,47,33,23,27,21,18,88,63,36,30.58,30.43,9,1,10,0.00
2013-11-5,53,44,34,39,31,21,77,62,51,30.46,30.29,5,1,11,0.00
2013-11-6,60,52,45,50,45,39,88,77,64,30.29,29.76,9,2,13,0.00
2013-11-7,57,45,38,52,40,32,97,82,70,29.87,29.70,15,7,24,0.33
2013-11-8,40,37,34,33,30,27,93,77,60,30.13,29.85,20,9,27,0.00
2013-11-9,46,41,36,33,30,28,79,66,54,30.13,29.73,10,3,16,0.00
2013-11-10,48,44,39,42,35,30,85,70,57,30.02,29.70,28,10,33,0.00
2013-11-11,45,39,31,37,32,28,93,76,58,30.07,29.85,18,6,26,0.01
2013-11-12,30,28,25,29,23,19,94,82,64,30.27,29.99,21,10,24,0.00
2013-11-13,36,29,22,25,21,17,91,72,58,30.35,30.06,12,7,20,0.00
2013-11-14,54,37,29,22,18,15,66,47,26,30.07,29.98,14,3,16,0.00
2013-11-15,59,47,37,28,24,20,52,40,27,30.06,29.98,7,1,10,0.00
2013-11-16,64,50,39,41,36,25,77,60,40,30.18,30.02,7,1,12,0.00
2013-11-17,58,53,48,55,50,41,94,89,75,30.02,29.35,11,3,20,0.13
2013-11-18,57,49,36,55,38,26,95,68,48,29.78,29.32,29,12,35,0.09
2013-11-19,37,34,30,32,28,25,94,78,66,30.34,29.77,25,10,32,0.01
2013-11-20,44,31,22,26,20,16,84,65,42,30.52,30.33,8,2,13,0.02
2013-11-21,45,37,30,37,26,13,91,64,47,30.44,30.20,6,1,14,0.03
2013-11-22,48,43,35,46,41,30,98,94,82,30.21,29.87,19,3,27,0.24
2013-11-23,37,29,19,30,23,13,90,79,62,30.06,29.86,26,12,30,0.00
2013-11-24,22,18,16,17,14,10,93,82,63,30.31,30.02,27,12,30,0.00
2013-11-25,36,27,19,21,16,13,84,65,45,30.33,30.08,12,4,19,0.00
2013-11-26,35,32,29,35,29,15,97,88,52,30.11,29.70,14,1,16,0.49
2013-11-27,34,31,22,34,29,20,99,94,81,29.76,29.48,19,10,30,0.63
2013-11-28,26,22,19,22,17,14,95,81,66,30.35,29.77,23,8,36,0.00
2013-11-29,27,22,12,23,17,8,95,84,66,30.67,30.35,11,3,13,0.00
2013-11-30,31,23,11,23,16,8,91,75,54,30.66,30.18,7,2,12,0.01
2013-12-1,40,33,29,33,28,23,96,81,66,30.18,29.90,8,1,11,0.06
2013-12-2,40,36,34,35,34,32,96,90,81,29.90,29.77,5,1,7,0.09
2013-12-3,40,33,27,33,30,25,96,88,72,29.93,29.80,6,1,7,0.01
2013-12-4,52,41,30,43,37,28,97,87,71,29.98,29.89,7,2,11,0.00
2013-12-5,54,50,42,52,48,42,97,91,87,29.90,29.72,14,3,16,0.08
2013-12-6,42,34,28,41,32,28,97,90,78,30.14,29.87,10,6,16,0.36
2013-12-7,30,28,24,28,21,15,94,75,62,30.46,30.13,16,9,24,0.00
2013-12-8,29,25,20,23,17,15,92,74,62,30.50,30.19,12,2,14,0.00
2013-12-9,40,33,25,36,30,23,95,87,72,30.17,29.80,12,3,19,0.02
2013-12-10,33,26,20,25,20,13,90,78,68,29.98,29.82,15,7,26,0.00
2013-12-11,26,22,17,23,18,10,94,86,74,30.17,29.98,14,6,23,0.00
2013-12-12,20,17,12,13,10,8,91,74,60,30.24,29.99,16,9,24,0.00
2013-12-13,25,19,16,21,16,11,93,87,74,30.30,29.95,20,7,25,0.00
2013-12-14,22,18,13,21,15,10,95,90,82,30.36,29.70,8,3,19,0.00
2013-12-15,27,24,22,25,22,15,97,93,75,29.75,29.52,20,5,24,0.00
2013-12-16,21,17,8,16,12,5,93,82,70,30.11,29.76,21,7,24,0.00
2013-12-17,26,19,7,24,17,5,95,92,87,30.09,29.86,7,2,14,0.00
2013-12-18,29,27,24,28,25,22,97,91,76,30.00,29.86,12,5,16,0.02
2013-12-19,43,34,26,33,26,21,84,73,57,30.00,29.88,6,1,13,0.22
2013-12-20,49,44,39,47,38,33,94,80,60,29.93,29.73,8,1,15,0.08
2013-12-21,55,47,32,52,46,32,99,95,86,29.75,29.68,11,2,19,0.50
2013-12-22,64,44,32,57,42,32,100,93,71,29.88,29.47,21,5,30,0.04
2013-12-23,42,37,29,41,34,22,98,88,71,30.14,29.86,19,6,24,0.04
2013-12-24,29,22,14,26,19,9,95,87,78,30.37,30.08,16,7,25,0.00
2013-12-25,24,16,9,16,11,7,91,80,71,30.46,30.19,19,3,23,0.00
2013-12-26,34,27,22,27,22,16,93,83,70,30.18,30.00,15,4,21,0.01
2013-12-27,32,28,21,28,23,17,90,83,74,30.20,30.08,12,3,19,0.00
2013-12-28,49,39,30,36,30,26,84,72,59,30.06,29.88,13,3,20,0.02
2013-12-29,44,38,34,38,33,29,99,82,57,29.88,29.55,14,1,15,0.39
2013-12-30,38,21,15,34,17,9,96,84,75,30.13,29.61,18,9,26,0.00
2013-12-31,26,19,16,20,13,8,92,78,65,30.18,29.90,22,7,35,0.00
2014-1-1,21,18,16,15,11,8,90,75,63,30.32,30.17,13,6,18,0.00
2014-1-2,16,11,0,13,9,-3,91,90,88,30.19,29.84,11,5,14,0.00